Header for Extended Forecast Station List Page

Search by: ID | Name | Date | Parm | Value | Avg | % Avg
Sort by: ID | Name | Date | Parm | Value | Avg | % Avg

Enter search or view all records.

Click on id for station plot
#IDNameDateParmValueAvg% Avg
0BULO3BULLY CREEK-BULLY CREEK DAM10-19-2020INFLOW (KAF)62253
1LWRI1LITTLE WOOD-LITTLE WOOD DAM10-19-2020INFLOW (KAF)91559
2RIDI1WILLOW CREEK-RIRIE DAM10-19-2020INFLOW (KAF)128146
3WRMO3MALHEUR-WARM SPRINGS DAM10-19-2020INFLOW (KAF)122257
4BERO3MALHEUR-AGENCY VALLEY DAM10-19-2020INFLOW (KAF)121675
5HWRI1BIG LOST-AT HOWELL RANCH NEAR CHILLY10-19-2020DISCHARGE (KAF)162174
6DEDI1DEADWOOD-NEAR LOWMAN10-19-2020INFLOW (KAF)171990
7MAGI1BIG WOOD-MAGIC DAM10-19-2020INFLOW (KAF)182865
8STRM8ST. REGIS-NEAR ST. REGIS10-19-2020DISCHARGE (KAF)193850
9LUCI1BOISE-LUCKY PEAK DAM10-19-2020INFLOW (KAF)20MM
10SATI1ST MARIES-NEAR SANTA10-19-2020DISCHARGE (KAF)213364
11HOTI1BRUNEAU-NEAR HOT SPRINGS10-19-2020DISCHARGE (KAF)222880
12MYKO3MCKAY CREEK-NEAR PILOT ROCK10-19-2020DISCHARGE (KAF)2316143
13BUDW1BUMPING-BUMPING LAKE DAM10-19-2020INFLOW (KAF)293680
14MACI1BIG LOST-MACKAY RESERVOIR NEAR MACKAY10-19-2020INFLOW (KAF)296522
15ARDW1ENTIAT-NEAR ARDENVOIR10-19-2020DISCHARGE (KAF)3022135
16HALI1BIG WOOD-AT HAILEY10-19-2020DISCHARGE (KAF)304075
17GIBO3UMATILLA-NEAR GIBBON10-19-2020DISCHARGE (KAF)3733113
18TNAW1TEANAWAY-BELOW FORKS10-19-2020DISCHARGE (KAF)4139104
19WSRI1WEISER-NEAR WEISER10-19-2020DISCHARGE (KAF)447757
20KADW1KACHESS-KACHESS DAM10-19-2020INFLOW (KAF)5345117
21ARAI1SF BOISE-ANDERSON RANCH DAM10-19-2020INFLOW (KAF)537571
22BIGI1BOISE-AT GLENWOOD BRIDGE10-19-2020DISCHARGE (KAF)5536153
23PIHI1PORTNEUF-AT POCATELLO10-19-2020DISCHARGE (KAF)576291
24KEDW1YAKIMA-KEECHELUS LAKE10-19-2020INFLOW (KAF)5852112
25RILW1TIETON-RIMROCK LAKE NEAR RIMROCK10-19-2020INFLOW (KAF)586787
26EASW1YAKIMA-AT EASTON10-19-2020DISCHARGE (KAF)606790
27RCCM8ROCK CREEK-NEAR CLINTON10-19-2020DISCHARGE (KAF)6349128
28OWYO3OWYHEE-OWYHEE DAM10-19-2020INFLOW (KAF)648278
29NACW1NACHES-NEAR NACHES10-19-2020DISCHARGE (KAF)697889
30MONO3NF JOHN DAY-AT MONUMENT10-19-2020DISCHARGE (KAF)7710473
31DLGM8CLARK FORK-AT DEER LODGE10-19-2020DISCHARGE (KAF)7863124
32CLFW1NACHES-NEAR CLIFFDEL10-19-2020DISCHARGE (KAF)7810376
33JLKW4SNAKE-JACKSON LAKE AT DAM10-19-2020INFLOW (KAF)7911369
34CSDI1NF PAYETTE-CASCADE DAM10-19-2020INFLOW (KAF)849489
35PDTO3UMATILLA-AT PENDLETON10-19-2020DISCHARGE (KAF)8476109
36PATW1METHOW-NEAR PATEROS10-19-2020DISCHARGE (KAF)909991
37LAUW1KETTLE-AT LAURIER10-19-2020DISCHARGE (KAF)9412774
38TEAI1TETON-NEAR ST. ANTHONY10-19-2020DISCHARGE (KAF)9510491
39IPDI1HENRYS FORK-ISLAND PARK DAM10-19-2020INFLOW (KAF)10011786
40WGCM8MF FLATHEAD-NEAR WEST GLACIER10-19-2020DISCHARGE (KAF)10216960
41CHEI1FALL RIVER-NEAR CHESTER10-19-2020DISCHARGE (KAF)10811396
42TCHW1WALLA WALLA-NEAR TOUCHET10-19-2020DISCHARGE (KAF)116114102
43CLUW1CLE ELUM-CLE ELUM LAKE10-19-2020INFLOW (KAF)123104118
44FCFM8NF FLATHEAD-NEAR COLUMBIA FALLS10-19-2020DISCHARGE (KAF)14119274
45UMAO3UMATILLA-NEAR UMATILLA10-19-2020DISCHARGE (KAF)14981184
46SERO3JOHN DAY-AT SERVICE CK10-19-2020DISCHARGE (KAF)15119577
47DRMM8CLARK FORK-NR DRUMMOND10-19-2020DISCHARGE (KAF)155MM
48PRTI1PRIEST-NEAR PRIEST RIVER10-19-2020DISCHARGE (KAF)16523869
49BONM8BLACKFOOT-NEAR BONNER10-19-2020DISCHARGE (KAF)173136127
50PARI1BOISE-NEAR PARMA10-19-2020DISCHARGE (KAF)19721094
51UNDW1WHITE SALMON-NEAR UNDERWOOD10-19-2020DISCHARGE (KAF)20223685
52EMMI1PAYETTE-NEAR EMMETT10-19-2020DISCHARGE (KAF)22934966
53HHWM8SF FLATHEAD-HUNGRY HORSE DAM10-19-2020INFLOW (KAF)23424695
54BITM8BITTERROOT-NEAR MISSOULA10-19-2020DISCHARGE (KAF)240228105
55UMTW1YAKIMA-AT UMTANUM10-19-2020DISCHARGE (KAF)248245101
56TRYO3GRANDE RONDE-TROY10-19-2020DISCHARGE (KAF)24929584
57HODO3HOOD-NEAR TUCKER BRIDGE10-19-2020DISCHARGE (KAF)255226113
58PITW1KLICKITAT-NEAR PITT10-19-2020DISCHARGE (KAF)26027794
59TONW1OKANOGAN-NEAR TONASKET10-19-2020DISCHARGE (KAF)27328397
60JKSW4SNAKE-NEAR JACKSON10-19-2020DISCHARGE (KAF)30631298
61CHDW1CHELAN-LAKE CHELAN DAM10-19-2020INFLOW (KAF)308158195
62ANTI1HENRYS FORK-AT ST. ANTHONY10-19-2020DISCHARGE (KAF)31834393
63ALPW4SNAKE-NEAR ALPINE10-19-2020DISCHARGE (KAF)36839394
64COEI1COEUR D ALENE-COEUR D ALENE LAKE10-19-2020INFLOW (KAF)39767359
65DWRI1NF CLEARWATER-DWORSHAK DAM10-19-2020INFLOW (KAF)40251179
66ABOM8CLARK FORK-ABOVE MISSOULA10-19-2020DISCHARGE (KAF)407345118
67REXI1HENRYS FORK-AT REXBURG10-19-2020DISCHARGE (KAF)41043495
68PESW1WENATCHEE-AT PESHASTIN10-19-2020DISCHARGE (KAF)423299142
69PARW1YAKIMA-NEAR PARKER10-19-2020DISCHARGE (KAF)42746891
70SPOW1SPOKANE-AT SPOKANE10-19-2020DISCHARGE (KAF)537MM
71ORFI1CLEARWATER-AT OROFINO10-19-2020DISCHARGE (KAF)59366589
72PLDI1SF SNAKE-PALISADES DAM10-19-2020INFLOW (KAF)60263495
73KIOW1YAKIMA-AT KIONA10-19-2020DISCHARGE (KAF)61970188
74BELM8CLARK FORK-BELOW MISSOULA10-19-2020DISCHARGE (KAF)645577112
75HEII1SNAKE-NEAR HEISE10-19-2020DISCHARGE (KAF)692599115
76LLKW1SPOKANE-AT LONGLAKE10-19-2020INFLOW (KAF)734113864
77SRGM8CLARK FORK-AT ST REGIS10-19-2020DISCHARGE (KAF)792755105
78LYDM8KOOTENAI-LIBBY DAM10-19-2020INFLOW (KAF)80390589
79BFTI1SNAKE-NEAR BLACKFOOT10-19-2020DISCHARGE (KAF)850789108
80SNAI1SNAKE-AT BLACKFOOT10-19-2020DISCHARGE (KAF)853734116
81CFMM8FLATHEAD-AT COLUMBIA FALLS10-19-2020DISCHARGE (KAF)899118676
82SIFI1SNAKE-AB EAGLE ROCK NR IDAHO FALLS10-19-2020DISCHARGE (KAF)924821113
83SHYI1SNAKE-NEAR SHELLEY10-19-2020DISCHARGE (KAF)928807115
84WHBI1SALMON-AT WHITEBIRD10-19-2020DISCHARGE (KAF)1036107996
85KERM8FLATHEAD-SELI’Š KSANKA QLISPE’ DAM10-19-2020INFLOW (KAF)1049150470
86SPDI1CLEARWATER-AT SPALDING10-19-2020DISCHARGE (KAF)1089159168
87MODO3DESCHUTES-AT MOODY NR BIGGS10-19-2020DISCHARGE (KAF)1128139381
88AFRI1SNAKE-AMERICAN FALLS RESERVOIR10-19-2020INFLOW (KAF)15171482102
89SWAI1SNAKE-BELOW SWAN FALLS10-19-2020DISCHARGE (KAF)1769257369
90LEOI1KOOTENAI-AT LEONIA10-19-2020DISCHARGE (KAF)24721563158
91WEII1SNAKE-AT WEISER10-19-2020DISCHARGE (KAF)2561363970
92BRNI1SNAKE-BROWNLEE DAM10-19-2020INFLOW (KAF)2758374774
93NOXM8CLARK FORK-NOXON RAPIDS DAM10-19-2020INFLOW (KAF)2760352578
94CABI1CLARK FORK-CABINET GORGE DAM10-19-2020INFLOW (KAF)3028367982
95ALFW1PEND OREILLE-ALBENI FALLS DAM10-19-2020INFLOW (KAF)3264429176
96ANAW1SNAKE-NEAR ANATONE10-19-2020DISCHARGE (KAF)3926569069
97LGDW1SNAKE-LOWER GRANITE DAM10-19-2020INFLOW (KAF)5013748967
98LGSW1SNAKE-LITTLE GOOSE DAM10-19-2020INFLOW (KAF)5013754166
99LMNW1SNAKE-LOWER MONUMENTAL DAM10-19-2020INFLOW (KAF)5081762867
100IHDW1SNAKE-ICE HARBOR DAM10-19-2020INFLOW (KAF)5081755267
101CIBW1COLUMBIA-AT INTL BOUNDARY10-19-2020DISCHARGE (KAF)20230MM
102GCDW1COLUMBIA-GRAND COULEE DAM10-19-2020INFLOW (KAF)2113117396121
103CHJW1COLUMBIA-CHIEF JOSEPH DAM10-19-2020INFLOW (KAF)2188921461102
104WELW1COLUMBIA-WELLS DAM10-19-2020INFLOW (KAF)2224321832102
105RRHW1COLUMBIA-ROCKY REACH DAM10-19-2020INFLOW (KAF)2284122321102
106PRWW1COLUMBIA-PRIEST RAPIDS DAM10-19-2020INFLOW (KAF)2330420153116
107WANW1COLUMBIA-WANAPUM DAM10-19-2020INFLOW (KAF)2330619791118
108MCDW1COLUMBIA-MCNARY DAM10-19-2020INFLOW (KAF)290662969298
109JDAO3COLUMBIA-JOHN DAY DAM10-19-2020INFLOW (KAF)302633066699
110TDAO3COLUMBIA-THE DALLES DAM10-19-2020INFLOW (KAF)307363424190
111BONO3COLUMBIA-BONNEVILLE DAM10-19-2020INFLOW (KAF)314283636486
112BFEI1KOOTENAI-AT BONNERS FERRY10-19-2020STAGE (FT)MMM
113HOPI1PEND OREILLE-PEND OREILLE LAKE NR HOPE10-19-2020LAKE ELEVATION (FT)MMM
114SJMI1ST JOE-AT ST MARIES10-19-2020STAGE (FT)MMM
115MILI1SNAKE-AT MILNER10-19-2020DISCHARGE (KAF)M563M